Showing default

PERUSAT 1, 41770

Orbit data source: Space-Track

PERUSAT 1, 41770 is a payload satellite owned by MOD Peru (PE) in SSO that was launched on Fri, 16 Sep 2016 UTC via a VEGA launch vehicle from the French Guiana (FRGUI). Payload-class satellites include a variety of spacecraft equipped with specific instruments for various scientific and technological missions. These include communications satellites like Starlink; space stations such as the ISS; scientific satellites like the Hubble; Earth observation satellites from companies like Planet Labs, Umbra, and HawkEye 360; GPS; miniature CubeSats for education and research; and military/defense satellites.

Loading next visibility...
Identifier
41770, 2016-058A
Orbit
SSO
Country
Flag of PEPE / PER
Related business
Manufacturer
Airbus/Toulouse
Mission
Operational Defense Imaging
Bus & Motor
ASTROBUS-S, Unknown motor
Mass
430 kg wet, ~400 kg dry
Launch date (UTC)
2016-09-16 (10 years ago)
Launch vehicle
VEGA
Launch site
French Guiana (FRGUI)
Object type
Payload
Rocket body
Debris
Shape & HBR
Hex Cyl + 3 Pan, 2.6 m
Radar Cross Section
3.025 m², Large (>1 m²)

Expand to show TLE details & history
Last TLE update: 23 hours ago

TLE from 23 hours ago
0 PERUSAT 1
1 41770U 16058A   26172.49019258  .00000397  00000-0  95228-4 0  9994
2 41770  98.2017 246.0825 0001266  85.3563 274.7781 14.58561039519722
Epoch: 2026-06-21T11:45Z
TLE epoch observation values (Epoch: 2026-06-21T11:45:52.638Z)
Latitude
-0.00004°
Longitude
159.92346°
Altitude
700.733 km
Speed
7.506 km/s
True Right ascension
16h 24m 19s
True Declination
0° 00' 00"
Sunlit
Object was in full shadow at epoch
Visualization orbit readout
Latitude
Unknown
Longitude
Unknown
Altitude
Unknown
Speed
Unknown
Apparent Right ascension
Unknown
Apparent Declination
Unknown
Sunlit
N/A
Visualization observer readout
Local Sidereal Time
21:41:19
Azimuth
Unknown
Elevation
Unknown
Doppler factor
Unknown
Orbital elements
Apogee altitude
695.803 km
Perigee altitude
694.012 km
Semi-major axis
7,073.044 km
Eccentricity
0.00013
Inclination
98.2017°
RAAN
246.0825°
Arg. of periapsis
85.3563°
True anomaly
274.76364°
Mean anomaly
274.7781°
Eccentric anomaly
274.77087°
Mean motion
3.64866 °/min
Orbital period
98.67 mins
BSTAR
0.000095228
Loading maneuver chart data...
Computing Atmospheric mass density...
Loading historical data...
Loading historical data...
Loading historical data...
Loading historical data...
Loading historical data...
Loading historical data...
Loading historical data...

Documentation

Showing up to 5 results
|